| time (UTC) | temp F | wind direction | speed MPH | gust MPH | rain 1hr in | rain 24hr in | rain mn in | humidity % | barometer mb |
| 20260510103414 | 51 | 77 | 2.0 | 3.0 | 0.00 | 0.00 | 0.00 | 99 | 1011.1 |
| 20260510102908 | 51 | 73 | 2.0 | 2.0 | 0.00 | 0.00 | 0.00 | 99 | 1011.3 |
| 20260510102404 | 51 | 42 | 2.0 | 2.0 | 0.00 | 0.00 | 0.00 | 99 | 1011.3 |
| 20260510101902 | 51 | 21 | 2.0 | 2.0 | 0.00 | 0.00 | 0.00 | 99 | 1011.4 |
| 20260510101400 | 51 | 32 | 2.0 | 2.0 | 0.00 | 0.00 | 0.00 | 99 | 1011.4 |
| 20260510100856 | 51 | 42 | 2.0 | 2.0 | 0.00 | 0.00 | 0.00 | 99 | 1011.1 |
| 20260510100354 | 51 | 41 | 3.0 | 3.0 | 0.00 | 0.00 | 0.00 | 99 | 1011.3 |
| 20260510095849 | 51 | 30 | 3.0 | 3.0 | 0.00 | 0.00 | 0.00 | 99 | 1011.1 |
| 20260510095344 | 51 | 22 | 2.0 | 3.0 | 0.00 | 0.00 | 0.00 | 99 | 1010.9 |
| 20260510094844 | 50 | 30 | 2.0 | 2.0 | 0.00 | 0.00 | 0.00 | 99 | 1010.8 |
| 20260510094340 | 51 | 73 | 2.0 | 3.0 | 0.00 | 0.00 | 0.00 | 99 | 1010.9 |
| 20260510093836 | 51 | 29 | 0.0 | 1.0 | 0.00 | 0.00 | 0.00 | 99 | 1011.0 |
| 20260510093332 | 51 | 39 | 0.0 | 2.0 | 0.00 | 0.00 | 0.00 | 99 | 1010.8 |
| 20260510092828 | 51 | 41 | 2.0 | 2.0 | 0.00 | 0.00 | 0.00 | 99 | 1010.5 |
| 20260510092324 | 51 | 48 | 2.0 | 3.0 | 0.00 | 0.00 | 0.00 | 99 | 1010.7 |
| 20260510091820 | 51 | 24 | 2.0 | 2.0 | 0.00 | 0.00 | 0.00 | 99 | 1010.6 |
| 20260510091318 | 51 | 52 | 2.0 | 2.0 | 0.00 | 0.00 | 0.00 | 99 | 1010.7 |
| 20260510090814 | 51 | 33 | 2.0 | 2.0 | 0.00 | 0.00 | 0.00 | 99 | 1010.6 |
| 20260510090311 | 51 | 20 | 2.0 | 2.0 | 0.00 | 0.00 | 0.00 | 99 | 1010.8 |
| 20260510085806 | 52 | 38 | 2.0 | 2.0 | 0.00 | 0.00 | 0.00 | 99 | 1010.9 |
| 20260510085301 | 52 | 30 | 1.0 | 2.0 | 0.00 | 0.00 | 0.00 | 99 | 1010.7 |
| 20260510084757 | 52 | 54 | 2.0 | 2.0 | 0.00 | 0.00 | 0.00 | 99 | 1010.7 |
| 20260510084254 | 52 | 49 | 2.0 | 2.0 | 0.00 | 0.00 | 0.00 | 99 | 1010.6 |
| 20260510083751 | 52 | 27 | 1.0 | 2.0 | 0.00 | 0.00 | 0.00 | 99 | 1010.7 |
| 20260510083248 | 52 | 47 | 2.0 | 2.0 | 0.00 | 0.00 | 0.00 | 99 | 1010.9 |
| 20260510082743 | 51 | 56 | 2.0 | 2.0 | 0.00 | 0.00 | 0.00 | 99 | 1010.9 |
| 20260510082240 | 51 | 64 | 1.0 | 2.0 | 0.00 | 0.00 | 0.00 | 99 | 1010.9 |
| 20260510081739 | 51 | 34 | 2.0 | 2.0 | 0.00 | 0.00 | 0.00 | 99 | 1011.0 |
| 20260510081235 | 51 | 30 | 2.0 | 4.0 | 0.00 | 0.00 | 0.00 | 99 | 1010.9 |
| 20260510080731 | 51 | 74 | 2.0 | 2.0 | 0.00 | 0.00 | 0.00 | 99 | 1010.9 |
| 20260510080227 | 51 | 57 | 2.0 | 3.0 | 0.00 | 0.00 | 0.00 | 99 | 1010.8 |
| 20260510075723 | 51 | 34 | 3.0 | 4.0 | 0.00 | 0.00 | 0.00 | 99 | 1010.8 |
| 20260510075221 | 51 | 59 | 3.0 | 3.0 | 0.00 | 0.00 | 0.00 | 99 | 1010.9 |
| 20260510074718 | 51 | 28 | 3.0 | 3.0 | 0.00 | 0.00 | 0.00 | 99 | 1010.7 |
| 20260510074214 | 50 | 359 | 3.0 | 4.0 | 0.00 | 0.00 | 0.00 | 99 | 1010.9 |
| 20260510073711 | 50 | 353 | 0.0 | 3.0 | 0.00 | 0.00 | 0.00 | 99 | 1010.8 |
| 20260510073206 | 50 | 2 | 2.0 | 4.0 | 0.00 | 0.00 | 0.00 | 99 | 1010.9 |
| 20260510072703 | 49 | 2 | 4.0 | 6.0 | 0.00 | 0.00 | 0.00 | 99 | 1010.7 |
| 20260510072159 | 49 | 346 | 2.0 | 2.0 | 0.00 | 0.00 | 0.00 | 99 | 1010.4 |
| 20260510071656 | 49 | 23 | 0.0 | 2.0 | 0.00 | 0.00 | 0.00 | 98 | 1010.1 |
| 20260510071153 | 49 | 34 | 2.0 | 2.0 | 0.00 | 0.00 | 0.00 | 98 | 1010.3 |
| 20260510070650 | 49 | 40 | 0.0 | 1.0 | 0.00 | 0.00 | 0.00 | 98 | 1010.2 |
| 20260510070148 | 49 | 59 | 2.0 | 2.0 | 0.00 | 0.00 | 0.00 | 98 | 1010.1 |
| 20260510065643 | 50 | 37 | 2.0 | 2.0 | 0.00 | 0.00 | 0.00 | 98 | 1010.3 |
| 20260510065139 | 50 | 60 | 2.0 | 2.0 | 0.00 | 0.00 | 0.00 | 98 | 1010.2 |
| 20260510064636 | 50 | 50 | 2.0 | 2.0 | 0.00 | 0.00 | 0.00 | 98 | 1010.4 |
| 20260510064133 | 50 | 86 | 2.0 | 3.0 | 0.00 | 0.00 | 0.00 | 98 | 1010.1 |
| 20260510063630 | 50 | 47 | 2.0 | 2.0 | 0.00 | 0.00 | 0.00 | 98 | 1010.1 |
| 20260510063127 | 50 | 74 | 2.0 | 3.0 | 0.00 | 0.00 | 0.00 | 98 | 1010.0 |
| 20260510062622 | 50 | 72 | 2.0 | 3.0 | 0.00 | 0.00 | 0.00 | 98 | 1010.5 |
| 20260510062118 | 50 | 46 | 4.0 | 4.0 | 0.00 | 0.00 | 0.00 | 98 | 1010.5 |
| 20260510061614 | 50 | 57 | 2.0 | 3.0 | 0.00 | 0.00 | 0.00 | 98 | 1010.6 |
| 20260510061112 | 50 | 9 | 3.0 | 3.0 | 0.00 | 0.00 | 0.00 | 98 | 1010.5 |
| 20260510060608 | 49 | 15 | 3.0 | 3.0 | 0.00 | 0.00 | 0.00 | 98 | 1010.3 |
| 20260510060104 | 49 | 20 | 2.0 | 3.0 | 0.00 | 0.00 | 0.00 | 98 | 1010.5 |
| 20260510055600 | 49 | 24 | 2.0 | 3.0 | 0.00 | 0.00 | 0.00 | 98 | 1010.1 |
| 20260510055059 | 49 | 38 | 2.0 | 2.0 | 0.00 | 0.00 | 0.00 | 98 | 1010.2 |
| 20260510054554 | 49 | 33 | 2.0 | 3.0 | 0.00 | 0.00 | 0.00 | 98 | 1010.0 |
| 20260510054049 | 49 | 45 | 2.0 | 2.0 | 0.00 | 0.00 | 0.00 | 98 | 1010.0 |
| 20260510053549 | 49 | 41 | 2.0 | 2.0 | 0.00 | 0.00 | 0.00 | 98 | 1010.0 |
| 20260510053047 | 49 | 40 | 2.0 | 3.0 | 0.00 | 0.00 | 0.00 | 98 | 1010.2 |
| 20260510052542 | 49 | 49 | 2.0 | 2.0 | 0.00 | 0.00 | 0.00 | 98 | 1010.3 |
| 20260510052039 | 49 | 55 | 2.0 | 2.0 | 0.00 | 0.00 | 0.00 | 98 | 1010.2 |
| 20260510051534 | 49 | 7 | 2.0 | 2.0 | 0.00 | 0.00 | 0.00 | 98 | 1010.2 |
| 20260510051031 | 49 | 39 | 2.0 | 2.0 | 0.00 | 0.00 | 0.00 | 98 | 1010.2 |
| 20260510050528 | 49 | 26 | 1.0 | 2.0 | 0.00 | 0.00 | 0.00 | 98 | 1010.3 |
| 20260510050026 | 48 | 21 | 2.0 | 3.0 | 0.00 | 0.00 | 0.00 | 98 | 1010.2 |
| 20260510045523 | 48 | 56 | 2.0 | 3.0 | 0.00 | 0.00 | 0.00 | 98 | 1010.2 |
| 20260510045018 | 48 | 17 | 1.0 | 2.0 | 0.00 | 0.00 | 0.00 | 98 | 1010.3 |
| 20260510044515 | 48 | 50 | 2.0 | 2.0 | 0.00 | 0.00 | 0.00 | 97 | 1010.4 |
| 20260510044013 | 48 | 48 | 1.0 | 2.0 | 0.00 | 0.00 | 0.00 | 97 | 1010.4 |
| 20260510043513 | 48 | 34 | 2.0 | 2.0 | 0.00 | 0.00 | 0.00 | 97 | 1010.4 |
| 20260510043009 | 48 | 54 | 2.0 | 2.0 | 0.00 | 0.00 | 0.00 | 97 | 1010.4 |
| 20260510042503 | 48 | 31 | 2.0 | 2.0 | 0.00 | 0.00 | 0.00 | 97 | 1010.4 |
| 20260510041958 | 48 | 49 | 2.0 | 2.0 | 0.00 | 0.00 | 0.00 | 97 | 1010.4 |
| 20260510041456 | 48 | 28 | 2.0 | 2.0 | 0.00 | 0.00 | 0.00 | 97 | 1010.3 |
| 20260510040954 | 48 | 53 | 2.0 | 2.0 | 0.00 | 0.00 | 0.00 | 97 | 1010.5 |
| 20260510040450 | 49 | 32 | 0.0 | 2.0 | 0.00 | 0.00 | 0.00 | 97 | 1010.6 |
| 20260510035946 | 49 | 60 | 2.0 | 2.0 | 0.00 | 0.11 | 0.11 | 97 | 1010.3 |
| 20260510035443 | 49 | 63 | 2.0 | 2.0 | 0.00 | 0.11 | 0.11 | 97 | 1010.5 |
| 20260510034942 | 49 | 49 | 2.0 | 2.0 | 0.00 | 0.11 | 0.11 | 97 | 1010.4 |
| 20260510034441 | 49 | 47 | 2.0 | 2.0 | 0.00 | 0.11 | 0.11 | 97 | 1010.3 |
| 20260510033937 | 49 | 56 | 2.0 | 3.0 | 0.00 | 0.11 | 0.11 | 97 | 1010.3 |
| 20260510033433 | 50 | 21 | 2.0 | 2.0 | 0.00 | 0.11 | 0.11 | 97 | 1010.6 |
| 20260510032931 | 50 | 29 | 1.0 | 2.0 | 0.00 | 0.11 | 0.11 | 97 | 1010.3 |
| 20260510032428 | 50 | 30 | 1.0 | 2.0 | 0.00 | 0.11 | 0.11 | 97 | 1010.4 |
| 20260510031928 | 50 | 31 | 2.0 | 2.0 | 0.00 | 0.11 | 0.11 | 97 | 1010.3 |
| 20260510031423 | 50 | 49 | 2.0 | 3.0 | 0.00 | 0.11 | 0.11 | 96 | 1010.1 |
| 20260510030919 | 50 | 60 | 2.0 | 2.0 | 0.00 | 0.11 | 0.11 | 96 | 1010.3 |
| 20260510030415 | 50 | 32 | 2.0 | 2.0 | 0.00 | 0.11 | 0.11 | 96 | 1010.1 |
| 20260510025913 | 50 | 27 | 2.0 | 3.0 | 0.00 | 0.11 | 0.11 | 96 | 1010.0 |
| 20260510025410 | 50 | 43 | 2.0 | 3.0 | 0.00 | 0.11 | 0.11 | 96 | 1010.0 |
| 20260510024907 | 51 | 42 | 2.0 | 2.0 | 0.00 | 0.11 | 0.11 | 96 | 1010.2 |
| 20260510024403 | 51 | 35 | 2.0 | 2.0 | 0.00 | 0.11 | 0.11 | 96 | 1010.2 |
| 20260510023859 | 51 | 19 | 0.0 | 2.0 | 0.00 | 0.11 | 0.11 | 96 | 1010.3 |
| 20260510023356 | 51 | 32 | 2.0 | 3.0 | 0.00 | 0.11 | 0.11 | 96 | 1010.2 |
| 20260510022854 | 51 | 45 | 2.0 | 3.0 | 0.00 | 0.11 | 0.11 | 96 | 1010.0 |
| 20260510022353 | 52 | 33 | 1.0 | 2.0 | 0.00 | 0.11 | 0.11 | 96 | 1010.0 |
| 20260510021851 | 52 | 25 | 2.0 | 3.0 | 0.00 | 0.11 | 0.11 | 96 | 1010.0 |
| 20260510021350 | 52 | 55 | 2.0 | 2.0 | 0.00 | 0.11 | 0.11 | 95 | 1010.0 |
| 20260510020846 | 52 | 24 | 2.0 | 2.0 | 0.00 | 0.11 | 0.11 | 95 | 1010.2 |
| 20260510020346 | 52 | 37 | 1.0 | 2.0 | 0.00 | 0.11 | 0.11 | 95 | 1009.9 |
| 20260510015842 | 53 | 52 | 2.0 | 2.0 | 0.00 | 0.11 | 0.11 | 95 | 1009.8 |
| 20260510015338 | 53 | 40 | 3.0 | 3.0 | 0.00 | 0.11 | 0.11 | 95 | 1009.8 |
| 20260510014833 | 53 | 34 | 2.0 | 2.0 | 0.00 | 0.11 | 0.11 | 95 | 1010.1 |
| 20260510014331 | 53 | 57 | 2.0 | 2.0 | 0.00 | 0.11 | 0.11 | 94 | 1009.7 |
| 20260510013827 | 53 | 31 | 2.0 | 3.0 | 0.00 | 0.11 | 0.11 | 94 | 1010.0 |
| 20260510013323 | 53 | 26 | 1.0 | 2.0 | 0.00 | 0.11 | 0.11 | 94 | 1009.8 |
| 20260510012818 | 54 | 34 | 1.0 | 2.0 | 0.00 | 0.11 | 0.11 | 94 | 1009.8 |
| 20260510012317 | 54 | 36 | 2.0 | 2.0 | 0.00 | 0.11 | 0.11 | 94 | 1009.7 |
| 20260510011812 | 54 | 40 | 2.0 | 3.0 | 0.00 | 0.11 | 0.11 | 94 | 1009.7 |
| 20260510011308 | 54 | 48 | 2.0 | 2.0 | 0.00 | 0.11 | 0.11 | 93 | 1009.7 |
| 20260510010805 | 55 | 49 | 2.0 | 2.0 | 0.00 | 0.11 | 0.11 | 93 | 1009.8 |
| 20260510010302 | 55 | 55 | 2.0 | 2.0 | 0.00 | 0.11 | 0.11 | 93 | 1009.8 |
| 20260510005759 | 55 | 32 | 0.0 | 2.0 | 0.00 | 0.11 | 0.11 | 93 | 1009.7 |
| 20260510005255 | 55 | 55 | 2.0 | 2.0 | 0.00 | 0.11 | 0.11 | 93 | 1009.4 |
| 20260510004753 | 55 | 38 | 2.0 | 2.0 | 0.00 | 0.11 | 0.11 | 92 | 1009.5 |
| 20260510004250 | 55 | 48 | 2.0 | 2.0 | 0.00 | 0.11 | 0.11 | 92 | 1009.2 |
| 20260510003747 | 55 | 54 | 2.0 | 2.0 | 0.00 | 0.11 | 0.11 | 91 | 1009.5 |
| 20260510003244 | 55 | 48 | 2.0 | 2.0 | 0.00 | 0.11 | 0.11 | 91 | 1009.3 |
| 20260510002742 | 55 | 34 | 2.0 | 2.0 | 0.00 | 0.11 | 0.11 | 90 | 1009.3 |
| 20260510002240 | 55 | 34 | 1.0 | 2.0 | 0.00 | 0.11 | 0.11 | 90 | 1009.2 |
| 20260510001736 | 56 | 40 | 2.0 | 2.0 | 0.00 | 0.11 | 0.11 | 89 | 1009.0 |
| 20260510001236 | 56 | 36 | 2.0 | 2.0 | 0.00 | 0.11 | 0.11 | 88 | 1008.9 |
| 20260510000731 | 57 | 42 | 2.0 | 2.0 | 0.00 | 0.11 | 0.11 | 88 | 1009.0 |
| 20260510000228 | 57 | 49 | 2.0 | 2.0 | 0.00 | 0.11 | 0.11 | 88 | 1008.9 |
| 20260509235725 | 57 | 43 | 1.0 | 2.0 | 0.00 | 0.11 | 0.11 | 87 | 1009.1 |
| 20260509235222 | 57 | 51 | 2.0 | 2.0 | 0.00 | 0.11 | 0.11 | 86 | 1009.0 |
| 20260509234717 | 58 | 38 | 1.0 | 2.0 | 0.00 | 0.11 | 0.11 | 85 | 1009.1 |
| 20260509234215 | 58 | 11 | 0.0 | 2.0 | 0.00 | 0.11 | 0.11 | 85 | 1009.1 |
| 20260509233713 | 59 | 67 | 2.0 | 2.0 | 0.00 | 0.11 | 0.11 | 84 | 1009.1 |
| 20260509233210 | 59 | 56 | 2.0 | 2.0 | 0.00 | 0.11 | 0.11 | 83 | 1009.0 |
| 20260509232706 | 59 | 58 | 2.0 | 3.0 | 0.00 | 0.11 | 0.11 | 84 | 1009.3 |
| 20260509232203 | 59 | 44 | 1.0 | 2.0 | 0.00 | 0.11 | 0.11 | 84 | 1009.1 |
| 20260509231700 | 59 | 55 | 2.0 | 2.0 | 0.00 | 0.11 | 0.11 | 84 | 1009.0 |
| 20260509231157 | 59 | 12 | 1.0 | 2.0 | 0.00 | 0.11 | 0.11 | 83 | 1009.0 |
| 20260509230654 | 59 | 62 | 2.0 | 3.0 | 0.00 | 0.11 | 0.11 | 82 | 1009.0 |
| 20260509230151 | 60 | 54 | 2.0 | 2.0 | 0.00 | 0.11 | 0.11 | 82 | 1009.0 |
| 20260509225647 | 60 | 45 | 2.0 | 2.0 | 0.00 | 0.11 | 0.11 | 81 | 1008.9 |
| 20260509225143 | 60 | 39 | 1.0 | 3.0 | 0.00 | 0.11 | 0.11 | 81 | 1008.8 |
| 20260509224638 | 60 | 89 | 2.0 | 2.0 | 0.00 | 0.11 | 0.11 | 80 | 1008.8 |
| 20260509224135 | 60 | 29 | 2.0 | 2.0 | 0.00 | 0.11 | 0.11 | 79 | 1008.8 |
| 20260509223632 | 60 | 38 | 0.0 | 3.0 | 0.00 | 0.11 | 0.11 | 77 | 1008.9 |
| 20260509223130 | 60 | 46 | 2.0 | 2.0 | 0.00 | 0.11 | 0.11 | 76 | 1008.8 |
| 20260509222626 | 60 | 39 | 3.0 | 3.0 | 0.00 | 0.11 | 0.11 | 76 | 1009.2 |
| 20260509222121 | 59 | 52 | 2.0 | 2.0 | 0.00 | 0.11 | 0.11 | 77 | 1009.0 |
| 20260509221618 | 59 | 103 | 2.0 | 3.0 | 0.00 | 0.11 | 0.11 | 77 | 1008.9 |
| 20260509221114 | 60 | 84 | 3.0 | 4.0 | 0.00 | 0.11 | 0.11 | 77 | 1009.1 |
| 20260509220609 | 60 | 11 | 2.0 | 4.0 | 0.00 | 0.11 | 0.11 | 77 | 1009.0 |
| 20260509220106 | 60 | 28 | 2.0 | 4.0 | 0.00 | 0.11 | 0.11 | 78 | 1009.0 |
| 20260509215602 | 60 | 46 | 3.0 | 4.0 | 0.00 | 0.11 | 0.11 | 78 | 1009.0 |
| 20260509215059 | 60 | 40 | 2.0 | 3.0 | 0.00 | 0.11 | 0.11 | 77 | 1009.0 |
| 20260509214556 | 60 | 92 | 3.0 | 3.0 | 0.00 | 0.11 | 0.11 | 77 | 1008.9 |
| 20260509214053 | 60 | 30 | 3.0 | 4.0 | 0.00 | 0.11 | 0.11 | 79 | 1008.7 |
| 20260509213549 | 60 | 86 | 2.0 | 3.0 | 0.00 | 0.11 | 0.11 | 79 | 1008.8 |
| 20260509213046 | 60 | 40 | 2.0 | 2.0 | 0.00 | 0.11 | 0.11 | 80 | 1008.7 |
| 20260509212543 | 60 | 32 | 2.0 | 2.0 | 0.00 | 0.11 | 0.11 | 79 | 1008.8 |
| 20260509212040 | 60 | 49 | 3.0 | 3.0 | 0.00 | 0.11 | 0.11 | 78 | 1008.8 |
| 20260509211535 | 60 | 15 | 2.0 | 3.0 | 0.00 | 0.11 | 0.11 | 77 | 1009.0 |
| 20260509211033 | 60 | 299 | 1.0 | 4.0 | 0.00 | 0.11 | 0.11 | 77 | 1009.0 |
| 20260509210529 | 60 | 348 | 2.0 | 2.0 | 0.00 | 0.11 | 0.11 | 78 | 1009.2 |
| 20260509210026 | 60 | 40 | 1.0 | 3.0 | 0.00 | 0.11 | 0.11 | 79 | 1009.2 |
| 20260509205520 | 60 | 353 | 3.0 | 5.0 | 0.00 | 0.11 | 0.11 | 78 | 1009.3 |
| 20260509205016 | 60 | 335 | 0.0 | 2.0 | 0.00 | 0.11 | 0.11 | 78 | 1009.4 |
| 20260509204513 | 60 | 328 | 2.0 | 2.0 | 0.00 | 0.11 | 0.11 | 80 | 1009.4 |
| 20260509204009 | 60 | 3 | 2.0 | 2.0 | 0.00 | 0.11 | 0.11 | 80 | 1009.3 |
| 20260509203505 | 59 | 20 | 3.0 | 3.0 | 0.00 | 0.11 | 0.11 | 80 | 1009.1 |
| 20260509203003 | 59 | 9 | 0.0 | 2.0 | 0.00 | 0.11 | 0.11 | 79 | 1009.5 |
| 20260509202458 | 59 | 63 | 2.0 | 3.0 | 0.00 | 0.11 | 0.11 | 82 | 1009.4 |
| 20260509201953 | 59 | 43 | 0.0 | 2.0 | 0.00 | 0.11 | 0.11 | 81 | 1009.4 |
| 20260509201454 | 59 | 71 | 0.0 | 2.0 | 0.00 | 0.11 | 0.11 | 83 | 1009.2 |
| 20260509200951 | 58 | 75 | 0.0 | 2.0 | 0.00 | 0.11 | 0.11 | 83 | 1009.4 |
| 20260509200446 | 57 | 350 | 0.0 | 1.0 | 0.00 | 0.11 | 0.11 | 83 | 1009.4 |
| 20260509195943 | 57 | 32 | 0.0 | 1.0 | 0.00 | 0.11 | 0.11 | 83 | 1009.6 |
| 20260509195439 | 57 | 322 | 1.0 | 1.0 | 0.02 | 0.11 | 0.11 | 84 | 1009.6 |
| 20260509194938 | 57 | 52 | 2.0 | 2.0 | 0.02 | 0.11 | 0.11 | 83 | 1009.5 |
| 20260509194434 | 57 | 30 | 1.0 | 1.0 | 0.00 | 0.10 | 0.10 | 84 | 1009.7 |
| 20260509193931 | 57 | 53 | 2.0 | 2.0 | 0.00 | 0.10 | 0.10 | 86 | 1009.6 |
| 20260509193430 | 57 | 25 | 0.0 | 2.0 | 0.00 | 0.10 | 0.10 | 85 | 1009.8 |
| 20260509192927 | 57 | 57 | 2.0 | 2.0 | 0.00 | 0.10 | 0.10 | 86 | 1009.8 |
| 20260509192423 | 57 | 40 | 1.0 | 3.0 | 0.00 | 0.10 | 0.10 | 89 | 1009.9 |
| 20260509191918 | 57 | 9 | 1.0 | 2.0 | 0.00 | 0.10 | 0.10 | 90 | 1010.2 |
| 20260509191414 | 56 | 36 | 2.0 | 2.0 | 0.00 | 0.10 | 0.10 | 90 | 1010.2 |
| 20260509190910 | 57 | 78 | 2.0 | 3.0 | 0.00 | 0.10 | 0.10 | 91 | 1010.5 |
| 20260509190408 | 56 | 59 | 2.0 | 2.0 | 0.02 | 0.10 | 0.10 | 90 | 1010.3 |
| 20260509185905 | 56 | 65 | 1.0 | 2.0 | 0.02 | 0.10 | 0.10 | 90 | 1010.6 |
| 20260509185402 | 56 | 38 | 2.0 | 2.0 | 0.05 | 0.10 | 0.10 | 91 | 1010.6 |
| 20260509184859 | 56 | 40 | 0.0 | 2.0 | 0.07 | 0.10 | 0.10 | 91 | 1010.8 |
| 20260509184355 | 56 | 65 | 2.0 | 2.0 | 0.05 | 0.09 | 0.09 | 90 | 1010.8 |
| 20260509183853 | 56 | 329 | 0.0 | 2.0 | 0.02 | 0.09 | 0.09 | 90 | 1010.7 |
| 20260509183347 | 56 | 8 | 1.0 | 2.0 | 0.02 | 0.08 | 0.08 | 89 | 1010.8 |
| 20260509182843 | 56 | 5 | 0.0 | 3.0 | 0.02 | 0.08 | 0.08 | 89 | 1010.9 |
| 20260509182341 | 56 | 44 | 0.0 | 2.0 | 0.02 | 0.08 | 0.08 | 88 | 1010.9 |
| 20260509181838 | 56 | 57 | 0.0 | 2.0 | 0.02 | 0.07 | 0.07 | 88 | 1010.9 |
| 20260509181335 | 56 | 24 | 2.0 | 2.0 | 0.05 | 0.07 | 0.07 | 88 | 1010.8 |
| 20260509180833 | 57 | 21 | 0.0 | 2.0 | 0.07 | 0.07 | 0.07 | 87 | 1010.9 |
| 20260509180328 | 57 | 340 | 2.0 | 2.0 | 0.05 | 0.06 | 0.06 | 86 | 1011.0 |
| 20260509175826 | 57 | 30 | 2.0 | 3.0 | 0.07 | 0.06 | 0.06 | 86 | 1010.7 |
| 20260509175322 | 57 | 332 | 2.0 | 2.0 | 0.05 | 0.05 | 0.05 | 85 | 1010.8 |
| 20260509174818 | 57 | 234 | 2.0 | 4.0 | 0.05 | 0.05 | 0.05 | 85 | 1011.0 |
| 20260509174313 | 58 | 21 | 0.0 | 1.0 | 0.02 | 0.04 | 0.04 | 85 | 1010.9 |
| 20260509173810 | 58 | 25 | 1.0 | 2.0 | 0.00 | 0.04 | 0.04 | 83 | 1010.9 |
| 20260509173305 | 58 | 12 | 1.0 | 2.0 | 0.00 | 0.04 | 0.04 | 84 | 1010.7 |
| 20260509172801 | 58 | 26 | 0.0 | 2.0 | 0.00 | 0.04 | 0.04 | 85 | 1010.9 |
| 20260509172259 | 58 | 18 | 1.0 | 2.0 | 0.00 | 0.04 | 0.04 | 83 | 1010.7 |
| 20260509171754 | 58 | 30 | 1.0 | 3.0 | 0.00 | 0.04 | 0.04 | 83 | 1010.7 |
| 20260509171250 | 58 | 13 | 1.0 | 2.0 | 0.00 | 0.04 | 0.04 | 83 | 1010.8 |
| 20260509170747 | 58 | 40 | 2.0 | 2.0 | 0.02 | 0.04 | 0.04 | 85 | 1010.3 |
| 20260509170243 | 57 | 70 | 2.0 | 2.0 | 0.05 | 0.04 | 0.04 | 84 | 1010.3 |
| 20260509165742 | 57 | 52 | 2.0 | 3.0 | 0.05 | 0.04 | 0.04 | 83 | 1010.5 |
| 20260509165237 | 58 | 57 | 2.0 | 3.0 | 0.07 | 0.03 | 0.03 | 83 | 1010.5 |
| 20260509164733 | 58 | 359 | 1.0 | 2.0 | 0.02 | 0.02 | 0.02 | 83 | 1010.7 |
| 20260509164229 | 58 | 355 | 0.0 | 2.0 | 0.02 | 0.02 | 0.02 | 82 | 1010.6 |
| 20260509163726 | 58 | 22 | 0.0 | 2.0 | 0.02 | 0.02 | 0.02 | 84 | 1010.5 |
| 20260509163223 | 58 | 322 | 0.0 | 2.0 | 0.02 | 0.02 | 0.02 | 83 | 1010.5 |
| 20260509162721 | 58 | 38 | 2.0 | 3.0 | 0.05 | 0.02 | 0.02 | 83 | 1010.7 |
| 20260509162216 | 59 | 316 | 2.0 | 4.0 | 0.05 | 0.01 | 0.01 | 84 | 1010.9 |
| 20260509161711 | 59 | 314 | 2.0 | 3.0 | 0.02 | 0.01 | 0.01 | 82 | 1011.0 |
| 20260509161208 | 58 | 337 | 1.0 | 2.0 | 0.02 | 0.00 | 0.00 | 81 | 1011.1 |
| 20260509160703 | 59 | 235 | 2.0 | 4.0 | 0.02 | 0.00 | 0.00 | 78 | 1011.1 |
| 20260509160159 | 59 | 313 | 3.0 | 3.0 | 0.00 | 0.00 | 0.00 | 79 | 1011.1 |
| 20260509155655 | 59 | 215 | 3.0 | 4.0 | 0.00 | 0.00 | 0.00 | 79 | 1011.1 |
| 20260509155151 | 59 | 306 | 1.0 | 3.0 | 0.00 | 0.00 | 0.00 | 79 | 1011.2 |
| 20260509154647 | 59 | 333 | 0.0 | 2.0 | 0.00 | 0.00 | 0.00 | 79 | 1011.3 |
| 20260509154145 | 59 | 224 | 3.0 | 4.0 | 0.00 | 0.00 | 0.00 | 79 | 1011.3 |
| 20260509153641 | 59 | 300 | 0.0 | 1.0 | 0.00 | 0.00 | 0.00 | 78 | 1011.3 |
| 20260509153138 | 59 | 276 | 1.0 | 2.0 | 0.00 | 0.00 | 0.00 | 77 | 1011.5 |
| 20260509152634 | 59 | 217 | 2.0 | 6.0 | 0.00 | 0.00 | 0.00 | 76 | 1011.2 |
| 20260509152132 | 59 | 310 | 0.0 | 2.0 | 0.00 | 0.00 | 0.00 | 77 | 1011.5 |
| 20260509151628 | 59 | 223 | 4.0 | 4.0 | 0.00 | 0.00 | 0.00 | 76 | 1011.3 |
| 20260509151125 | 59 | 21 | 0.0 | 3.0 | 0.00 | 0.00 | 0.00 | 77 | 1011.4 |
| 20260509150623 | 59 | 288 | 1.0 | 6.0 | 0.00 | 0.00 | 0.00 | 76 | 1011.4 |
| 20260509150121 | 59 | 206 | 3.0 | 4.0 | 0.00 | 0.00 | 0.00 | 77 | 1011.4 |
| 20260509145617 | 59 | 330 | 1.0 | 5.0 | 0.00 | 0.00 | 0.00 | 76 | 1011.2 |
| 20260509145112 | 59 | 293 | 0.0 | 1.0 | 0.00 | 0.00 | 0.00 | 79 | 1011.1 |
| 20260509144609 | 59 | 293 | 0.0 | 2.0 | 0.00 | 0.00 | 0.00 | 77 | 1011.1 |
| 20260509144106 | 58 | 66 | 3.0 | 3.0 | 0.00 | 0.00 | 0.00 | 77 | 1011.3 |
| 20260509143603 | 58 | 236 | 2.0 | 3.0 | 0.00 | 0.00 | 0.00 | 76 | 1011.0 |
| 20260509143101 | 59 | 231 | 2.0 | 4.0 | 0.00 | 0.00 | 0.00 | 76 | 1011.1 |
| 20260509142556 | 59 | 190 | 0.0 | 2.0 | 0.00 | 0.00 | 0.00 | 75 | 1011.2 |
| 20260509142052 | 59 | 77 | 1.0 | 2.0 | 0.00 | 0.00 | 0.00 | 75 | 1011.2 |
| 20260509141549 | 59 | 52 | 2.0 | 3.0 | 0.00 | 0.00 | 0.00 | 74 | 1011.0 |
| 20260509141045 | 59 | 326 | 0.0 | 3.0 | 0.00 | 0.00 | 0.00 | 73 | 1011.1 |
| 20260509140542 | 59 | 41 | 1.0 | 2.0 | 0.00 | 0.00 | 0.00 | 74 | 1011.0 |
| 20260509140040 | 59 | 72 | 2.0 | 3.0 | 0.00 | 0.00 | 0.00 | 74 | 1010.8 |
| 20260509135537 | 58 | 315 | 0.0 | 2.0 | 0.00 | 0.00 | 0.00 | 74 | 1010.8 |
| 20260509135035 | 58 | 181 | 0.0 | 5.0 | 0.00 | 0.00 | 0.00 | 73 | 1010.9 |
| 20260509134532 | 58 | 98 | 2.0 | 3.0 | 0.00 | 0.00 | 0.00 | 74 | 1010.9 |
| 20260509134030 | 58 | 53 | 0.0 | 4.0 | 0.00 | 0.00 | 0.00 | 74 | 1010.9 |
| 20260509133526 | 57 | 52 | 1.0 | 2.0 | 0.00 | 0.00 | 0.00 | 75 | 1010.9 |
| 20260509133024 | 57 | 40 | 1.0 | 2.0 | 0.00 | 0.00 | 0.00 | 74 | 1010.9 |
| 20260509132522 | 57 | 52 | 2.0 | 3.0 | 0.00 | 0.00 | 0.00 | 74 | 1010.9 |
| 20260509132020 | 57 | 45 | 0.0 | 2.0 | 0.00 | 0.00 | 0.00 | 74 | 1010.8 |
| 20260509131515 | 57 | 41 | 2.0 | 2.0 | 0.00 | 0.00 | 0.00 | 74 | 1010.9 |
| 20260509131013 | 57 | 6 | 2.0 | 3.0 | 0.00 | 0.00 | 0.00 | 74 | 1010.9 |
| 20260509130508 | 57 | 33 | 2.0 | 3.0 | 0.00 | 0.00 | 0.00 | 74 | 1011.0 |
| 20260509130005 | 57 | 249 | 1.0 | 2.0 | 0.00 | 0.00 | 0.00 | 74 | 1011.0 |
| 20260509125501 | 56 | 46 | 2.0 | 2.0 | 0.00 | 0.00 | 0.00 | 74 | 1011.0 |
| 20260509124957 | 56 | 39 | 2.0 | 2.0 | 0.00 | 0.00 | 0.00 | 74 | 1011.1 |
| 20260509124455 | 56 | 48 | 2.0 | 2.0 | 0.00 | 0.00 | 0.00 | 75 | 1010.9 |
| 20260509123952 | 56 | 30 | 2.0 | 2.0 | 0.00 | 0.00 | 0.00 | 76 | 1011.1 |
| 20260509123449 | 56 | 44 | 2.0 | 2.0 | 0.00 | 0.00 | 0.00 | 76 | 1010.8 |
| 20260509122945 | 55 | 226 | 0.0 | 2.0 | 0.00 | 0.00 | 0.00 | 75 | 1010.8 |
| 20260509122442 | 55 | 63 | 1.0 | 2.0 | 0.00 | 0.00 | 0.00 | 75 | 1010.8 |
| 20260509121939 | 55 | 58 | 2.0 | 2.0 | 0.00 | 0.00 | 0.00 | 76 | 1010.9 |
| 20260509121436 | 55 | 7 | 2.0 | 2.0 | 0.00 | 0.00 | 0.00 | 77 | 1010.9 |
| 20260509120934 | 55 | 63 | 2.0 | 2.0 | 0.00 | 0.00 | 0.00 | 76 | 1010.8 |
| 20260509120432 | 55 | 247 | 0.0 | 2.0 | 0.00 | 0.00 | 0.00 | 77 | 1010.8 |
| 20260509115929 | 55 | 40 | 0.0 | 3.0 | 0.00 | 0.00 | 0.00 | 77 | 1011.0 |
| 20260509115426 | 54 | 56 | 2.0 | 3.0 | 0.00 | 0.00 | 0.00 | 78 | 1010.9 |
| 20260509114924 | 54 | 31 | 2.0 | 3.0 | 0.00 | 0.00 | 0.00 | 78 | 1010.9 |
| 20260509114422 | 54 | 45 | 2.0 | 2.0 | 0.00 | 0.00 | 0.00 | 78 | 1010.9 |
| 20260509113922 | 54 | 359 | 0.0 | 1.0 | 0.00 | 0.00 | 0.00 | 78 | 1010.9 |
| 20260509113418 | 54 | 17 | 1.0 | 2.0 | 0.00 | 0.00 | 0.00 | 78 | 1011.0 |
| 20260509112915 | 54 | 230 | 0.0 | 1.0 | 0.00 | 0.00 | 0.00 | 78 | 1010.7 |
| 20260509112413 | 54 | 56 | 2.0 | 3.0 | 0.00 | 0.00 | 0.00 | 79 | 1010.7 |
| 20260509111909 | 53 | 29 | 2.0 | 2.0 | 0.00 | 0.00 | 0.00 | 79 | 1010.7 |
| 20260509111406 | 53 | 11 | 0.0 | 2.0 | 0.00 | 0.00 | 0.00 | 81 | 1010.9 |
| 20260509110904 | 53 | 53 | 2.0 | 2.0 | 0.00 | 0.00 | 0.00 | 82 | 1010.8 |
| 20260509110359 | 52 | 358 | 1.0 | 3.0 | 0.00 | 0.00 | 0.00 | 84 | 1010.7 |
| 20260509105858 | 52 | 21 | 2.0 | 3.0 | 0.00 | 0.00 | 0.00 | 84 | 1010.6 |
| 20260509105356 | 52 | 24 | 0.0 | 3.0 | 0.00 | 0.00 | 0.00 | 85 | 1010.6 |
| 20260509104852 | 52 | 21 | 1.0 | 2.0 | 0.00 | 0.00 | 0.00 | 85 | 1010.6 |
| 20260509104349 | 51 | 12 | 1.0 | 2.0 | 0.00 | 0.00 | 0.00 | 86 | 1010.4 |
| 20260509103847 | 51 | 69 | 3.0 | 3.0 | 0.00 | 0.00 | 0.00 | 85 | 1010.4 |